Location: Moscow
(55.7500°N, 37.5830°E)
Time: 16:47:08
(UTC+03:00)

Transit 2A - Pass Details

Date: 30 November 2021
Orbit: 591 x 967 km, 66.7° (Epoch: 17 January)

Event Time Altitude Azimuth Distance (km) Brightness Sun altitude
Rises 10:55:03 0° 315° (NW) 3,655 8.9 10.6°
Reaches altitude 10° 10:57:56 10° 305° (NW) 2,715 8.4 10.7°
Maximum altitude 11:03:17 29° 248° (WSW) 1,691 7.9 10.9°
Drops below altitude 10° 11:08:31 10° 191° (SSW) 2,646 10.1 11.1°
Sets 11:11:18 0° 181° (S) 3,546 11.1 11.3°
